logo
Rechercher aéroport 
image banner adimage banner adimage banner ad
image banner ad

FASWAR - Swartspruit

Situé à , South Africa

ICAO - , IATA -

Données fournies par Airmate  

Information générale

Coordonnées: S25°42'44" E27°59'46"
Élévation : 2706 feet MSL.
 
Voir autres Aéroports à Limpopo

Données opérationnelles

Special qualification required
Heure actuelle UTC:
Heure actuelle locale:
Météo à : FALA - Lanseria International ( 26 km )
METAR: FALA 152000Z 22005KT CAVOK 10/M09 Q1026 NOSIG
TAF: TAF FALA 151600Z 1518/1618 VRB03KT CAVOK TX21/1612Z TN03/1603Z BECMG 1609/1611 31010KT BECMG 1613/1615 VRB03KT
Voir NOTAMs / SUP AIP / TFR affectant cet aéroport [VIEW]
Fréquences de communication: [VIEW]

Pistes:

Identifiant RWYQFULongueur (ft)Largeur (ft)SurfaceLDA (ft)
05166°360966SAND
23346°360966SAND
12100°196966GRASS
30280°196966GRASS

Coordonnées de l'aéroport

Adresse: South Africa

Vue satellite de FASWAR